Weather in Podvolochisk

Ukraine / Ternopil District     49˚31′31″N   26˚08′09″E
temp.,
°C
wind,
m/s
gust,
m/s
humid.,
%
clouds,
%
prec.,
mm/h
press.,
hPa
HPBL,
m
29 november, sun
sun2923:00wsw3695100 0.2 1019307
02:00−1˚nw3693100 0.8 1019327
05:00−3˚wnw369567 0.0 1019198
08:00−2˚w249178 0.0 1020210
11:00wsw2377100 0.0 1020592
14:00+1˚wsw2473100 0.1 1020757
17:00−1˚wsw2282100 0.0 102125
20:00−2˚wsw228888 0.0 102232
30 november, mon
mon3023:00−2˚wsw229354 0.0 102346
02:00−3˚w229527 0.0 102449
05:00−3˚wsw12950 0.0 102421
08:00−3˚wnw22950 0.0 102636
11:00−1˚wnw23780 0.0 1026416
14:00nw447630 0.0 1027603
17:00−2˚nnw228173 0.0 102882
20:00−2˚nnw127586 0.0 1028547
1 december, tue
tue123:00−2˚n1276100 0.0 1029163
02:00−4˚ne128377 0.0 102921
05:00−4˚e22860 0.0 102839
08:00−4˚ese22890 0.0 102958
11:00−2˚ese34730 0.0 1028429
14:00−1˚ese34670 0.0 1027502
17:00−3˚e33780 0.0 102760
20:00−4˚e36850 0.0 1028176
2 december, wed
wed223:00−4˚e36890 0.0 1028170
02:00−4˚ene24946 0.0 1027113
05:00−4˚ene349763 0.0 1027139
08:00−2˚e259375 0.1 1026212
11:00e249098 0.1 1026266
14:00e348698 0.1 1025425
17:00−1˚ene2391100 0.0 1025146
20:00−1˚e2496100 0.1 1025190
3 december, thu
thu323:00−1˚ese2496100 0.1 1025206
02:00−1˚se2498100 0.3 1024180
05:00−1˚se369482 0.0 1023282
08:00−2˚se469091 0.1 1023374
11:00sse588473 0.0 1023624
14:00+1˚sse587787 0.0 1021736
17:00se6980100 0.0 1020645
20:00−1˚se5118493 0.0 1020449